User: anonymous   Login
Location: Unspecified
(0.0000°N, 0.0000°E)
Time: 22:45:19
(UTC+00:00)
Language:

STARLINK-3614 - Orbit

View from above orbital plane
View from above orbital plane
View from above satellite
View from above satellite

Ground track
Ground track

The orbit is defined by the following mean orbital elements,

1 51771U          26145.31580839 +.00000000 +00000-0 -27652-5 0 00007
2 51771  53.2142 355.1210 0001039 108.6573 251.4532 15.08834906    06
Epoch (UTC): 25 May 2026 07:34:45
Eccentricity: 0.0001039
inclination: 53.2142°
perigee height: 539 km
apogee height: 540 km
right ascension of ascending node: 355.1210°
argument of perigee: 108.6573°
revolutions per day: 15.08834906
mean anomaly at epoch: 251.4532°

The dashed part of the orbit path shows where the satellite is in the earth's shadow,  

DLR